Regional Weather Roundup
Issued by NWS State College, PA

Home | Current Version | Previous Version | Graphics & Text | Print | Product List | Glossary Off
Versions: 1 2 3 4 5 6 7 8 9 10 11 12 13 14 15 16 17 18 19 20 21 22 23 24 25 26 27 28 29 30 31 32 33 34 35 36 37 38 39 40 41 42 43 44 45 46 47 48 49 50

000
ASUS41 KCTP 260503
RWRCTP

REGIONAL WEATHER ROUNDUP
NATIONAL WEATHER SERVICE STATE COLLEGE PA
100 AM EDT THU MAY 26 2016

Note: "fair" indicates few or no clouds below 12,000 feet with no
significant weather and/or obstructions to visibility.

* = STATION THAT DOES NOT REPORT PRECIPITATION /E.G. RAIN...SNOW...ETC/
    THUNDER OR FOG.

PAZ002>004-007>009-013>016-020>023-029>032-260600-
WESTERN PENNSYLVANIA

CITY           SKY/WX    TMP DP  RH WIND       PRES   REMARKS
ERIE           CLOUDY    71  55  56 S7        30.07F
MEADVILLE      CLOUDY    68  54  60 S5        30.11F
FRANKLIN*      CLOUDY    66  52  59 S5        30.15S
NEW CASTLE     CLOUDY    66  57  72 CALM      30.11F
BEAVER COUNTY  NOT AVBL
BUTLER*        PTCLDY    66  55  68 CALM      30.15S
PITTSBURGH INT CLOUDY    70  56  61 S3        30.11F
PITTSBURGH     MOCLDY    68  55  63 S6        30.12S
INDIANA*       MOCLDY    64  55  72 CALM      30.17S
LATROBE        MOCLDY    64  57  77 CALM      30.14S
WASHINGTON CO* MOCLDY    63  57  82 CALM      30.13F
$$

PAZ004>006-010>012-017>019-024>028-033>037-041-042-045-046-049>053-260600-
CENTRAL PENNSYLVANIA

CITY           SKY/WX    TMP DP  RH WIND       PRES   REMARKS
BRADFORD       CLEAR     56  48  74 CALM      30.15F
DUBOIS         CLOUDY    65  45  48 CALM      30.14S
CLEARFIELD     MOCLDY    59  49  69 CALM      30.14F
JOHNSTOWN      MOCLDY    66  46  48 SW5       30.17S
ALTOONA        PTCLDY    63  51  65 CALM      30.15S
STATE COLLEGE  PTCLDY    65  50  58 W3        30.13R
WILLIAMSPORT   CLOUDY    60  53  77 SW3       30.10R
SELINSGROVE    CLOUDY    59  55  87 CALM      30.10S
FT INDIANTOWN  CLOUDY    60  56  88 NE2       30.10S
CAPITAL CITY   CLOUDY    69  53  56 W7        30.09F
HARRISBURG     CLOUDY    69  52  54 E5        30.09R
YORK           CLOUDY    57  54  89 CALM      30.11S
$$

PAZ038>040-043-044-047-048-054-055-060>062-067>071-260600-
EASTERN PENNSYLVANIA

CITY           SKY/WX    TMP DP  RH WIND       PRES   REMARKS
SCRANTON       CLOUDY    62  53  72 S5        30.10S
MOUNT POCONO   CLOUDY    54  49  83 NW6       30.14S
ALLENTOWN      CLOUDY    64  52  64 SW3       30.09S
QUAKERTOWN*    CLOUDY    59  55  88 CALM      30.11S
READING        CLOUDY    63  54  72 CALM      30.09S
LANCASTER      PTCLDY    61  54  77 CALM      30.10S
COATESVILLE    CLOUDY    70  52  52 SW3       30.13S
POTTSTOWN      CLOUDY    63  53  70 CALM      30.11S
BLUE BELL      CLOUDY    59  55  88 CALM      30.09F
DOYLESTOWN     CLOUDY    67  49  52 S3        30.09S
WILLOW GROVE   NOT AVBL
NORTH PHILA    CLOUDY    72  54  53 SW7       30.10S
PHILADELPHIA   CLOUDY    70  55  59 SW7       30.10S
$$




USA.gov is the U.S. government's official web portal to all federal, state and local government web resources and services.